EW5412 Weather Reports


Display with metric or nautical units.
time (UTC)temp
F
wind
direction
speed
MPH
gust
MPH
rain 1hr
in
rain 24hr
in
rain mn
in
humidity
%
barometer
mb
20260509033025 53 256 0.0 2.0 0.00 0.05 0.05 91 1007.5
20260509031526 53 281 0.0 3.0 0.00 0.05 0.05 91 1007.5
20260509030022 53 262 0.0 4.0 0.00 0.05 0.05 90 1007.7
20260509024521 53 262 0.0 2.0 0.00 0.05 0.05 90 1007.8
20260509023019 54 257 1.0 3.0 0.00 0.05 0.05 89 1007.7
20260509021519 54 259 1.0 3.0 0.00 0.05 0.05 89 1007.7
20260509020021 55 274 1.0 4.0 0.00 0.05 0.05 88 1007.8
20260509014518 55 278 1.0 5.0 0.00 0.22 0.05 87 1007.7
20260509013017 56 281 2.0 6.0 0.00 0.22 0.05 86 1007.6
20260509011517 56 278 3.0 7.0 0.00 0.22 0.05 85 1007.4
20260509010017 56 282 5.0 8.0 0.00 0.22 0.05 85 1007.3
20260509004616 57 278 3.0 6.0 0.00 0.22 0.05 83 1007.3
20260509003014 57 284 4.0 6.0 0.00 0.22 0.05 82 1007.2
20260509001513 58 297 3.0 10.0 0.00 0.22 0.05 81 1007.2
20260509000024 58 283 6.0 10.0 0.00 0.22 0.05 81 1007.2
20260508234513 58 271 5.0 13.0 0.00 0.22 0.05 82 1007.2
20260508233013 59 290 7.0 11.0 0.00 0.22 0.05 81 1007.2
20260508231510 59 304 6.0 9.0 0.00 0.22 0.05 81 1007.3
20260508230009 59 281 4.0 10.0 0.00 0.22 0.05 81 1007.5
20260508224526 58 277 7.0 12.0 0.00 0.22 0.05 80 1007.6
20260508223010 59 278 7.0 13.0 0.00 0.22 0.05 80 1007.5
20260508221506 59 269 8.0 12.0 0.00 0.22 0.05 78 1007.4
20260508220005 59 283 7.0 15.0 0.00 0.22 0.05 75 1007.5
20260508214505 59 280 8.0 15.0 0.00 0.22 0.05 76 1007.5
20260508213006 59 304 5.0 15.0 0.00 0.22 0.05 77 1007.6
20260508211600 59 308 10.0 17.0 0.00 0.22 0.05 77 1007.7
20260508210059 59 301 5.0 10.0 0.00 0.22 0.05 77 1007.6
20260508204559 58 270 4.0 7.0 0.00 0.22 0.05 78 1007.9
20260508203100 58 316 5.0 12.0 0.00 0.22 0.05 78 1008.1
20260508201554 58 248 4.0 11.0 0.00 0.22 0.05 76 1008.3
20260508200105 59 236 1.0 5.0 0.00 0.22 0.05 72 1008.5
20260508194548 59 260 3.0 5.0 0.00 0.22 0.05 73 1008.5
20260508193057 59 256 2.0 4.0 0.00 0.22 0.05 71 1008.9
20260508191541 58 266 1.0 3.0 0.00 0.22 0.05 72 1009.2
20260508190038 58 266 0.0 1.0 0.00 0.22 0.05 77 1009.6
20260508184537 57 267 0.0 4.0 0.00 0.22 0.05 78 1009.6
20260508183039 57 290 2.0 7.0 0.00 0.22 0.05 79 1009.9
20260508181530 57 292 3.0 6.0 0.00 0.22 0.05 78 1010.2
20260508180031 57 294 2.0 9.0 0.00 0.22 0.05 77 1010.4
20260508174527 57 257 4.0 5.0 0.00 0.22 0.05 79 1010.4
20260508173027 57 267 0.0 1.0 0.00 0.22 0.05 83 1010.6
20260508171531 56 267 0.0 2.0 0.00 0.22 0.05 84 1010.8
20260508170016 55 201 0.0 3.0 0.00 0.22 0.05 86 1011.0
20260508164513 54 218 1.0 3.0 0.00 0.22 0.05 86 1011.2
20260508163009 53 266 0.0 3.0 0.01 0.22 0.05 87 1011.5
20260508161512 53 259 1.0 4.0 0.01 0.22 0.05 87 1011.6
20260508160008 53 267 1.0 6.0 0.01 0.22 0.05 87 1011.8
20260508154508 52 273 2.0 5.0 0.01 0.22 0.05 87 1011.7
20260508153007 52 281 3.0 8.0 0.00 0.21 0.04 86 1011.6
20260508151505 52 264 5.0 11.0 0.00 0.21 0.04 88 1011.6
20260508150125 52 266 3.0 6.0 0.00 0.21 0.04 89 1011.7
20260508144604 51 260 3.0 6.0 0.01 0.21 0.04 92 1011.8
20260508143054 50 57 0.0 3.0 0.03 0.21 0.04 93 1011.9
20260508141559 50 267 4.0 7.0 0.03 0.21 0.04 92 1012.0
20260508140055 49 294 4.0 10.0 0.03 0.21 0.04 92 1012.5
20260508134545 50 276 5.0 10.0 0.02 0.20 0.03 91 1012.4
20260508133043 50 302 3.0 8.0 0.00 0.18 0.01 90 1012.5
20260508131539 49 283 1.0 6.0 0.00 0.18 0.01 89 1012.1
20260508130037 49 286 3.0 6.0 0.00 0.18 0.01 89 1012.3
20260508124532 49 278 2.0 5.0 0.00 0.18 0.01 89 1012.2
20260508123032 48 271 1.0 4.0 0.00 0.18 0.01 89 1012.1
20260508121528 48 273 0.0 4.0 0.00 0.18 0.01 89 1012.2
20260508120025 48 276 2.0 4.0 0.00 0.18 0.01 90 1012.0
20260508114530 47 286 1.0 5.0 0.00 0.18 0.01 90 1012.0
20260508113025 47 281 0.0 3.0 0.00 0.18 0.01 90 1011.9
20260508111516 46 281 0.0 1.0 0.00 0.18 0.01 90 1011.9
20260508110016 46 281 0.0 4.0 0.00 0.18 0.01 90 1011.7
20260508104516 46 316 1.0 4.0 0.00 0.18 0.01 90 1011.8
20260508103016 47 276 1.0 5.0 0.00 0.18 0.01 89 1011.5
20260508101513 47 309 1.0 5.0 0.00 0.18 0.01 89 1011.7
20260508100010 47 283 3.0 5.0 0.00 0.18 0.01 89 1011.5
20260508094508 47 301 1.0 6.0 0.00 0.18 0.01 89 1011.6
20260508093007 47 288 2.0 4.0 0.00 0.18 0.01 89 1011.8
20260508091559 47 295 3.0 7.0 0.00 0.18 0.01 89 1012.0
20260508090101 47 283 2.0 6.0 0.00 0.18 0.01 89 1011.9
20260508084555 46 290 2.0 5.0 0.00 0.18 0.01 90 1011.8
20260508083052 46 277 1.0 5.0 0.00 0.18 0.01 90 1011.8
20260508081555 46 277 1.0 6.0 0.00 0.18 0.01 90 1011.8
20260508080049 45 281 2.0 7.0 0.00 0.18 0.01 91 1011.9
20260508074546 45 274 1.0 5.0 0.00 0.18 0.01 92 1011.8
20260508073047 44 283 2.0 6.0 0.00 0.18 0.01 93 1011.7
20260508071543 44 286 1.0 4.0 0.00 0.18 0.01 93 1011.7
20260508070042 44 284 1.0 4.0 0.00 0.18 0.01 93 1011.8
20260508064559 44 271 1.0 4.0 0.01 0.18 0.01 93 1011.8
20260508063040 44 277 1.0 3.0 0.01 0.18 0.01 93 1011.9
20260508061542 44 264 1.0 3.0 0.01 0.18 0.01 93 1012.0
20260508060039 44 284 1.0 4.0 0.01 0.18 0.01 94 1012.1
20260508054558 43 260 1.0 4.0 0.00 0.17 0.00 94 1012.2
20260508053034 43 280 0.0 1.0 0.00 0.17 0.00 94 1012.3
20260508051533 43 231 0.0 2.0 0.00 0.17 0.00 94 1012.3
20260508050038 43 240 0.0 0.0 0.00 0.17 0.00 93 1012.3
20260508044530 43 240 0.0 2.0 0.00 0.17 0.00 93 1012.4
20260508043040 43 226 0.0 3.0 0.00 0.17 0.00 93 1012.4
20260508041530 43 242 0.0 3.0 0.00 0.17 0.00 93 1012.2
20260508040024 44 259 0.0 3.0 0.00 0.17 0.00 93 1012.3
20260508034527 44 246 0.0 3.0 0.00 0.17 0.17 93 1012.3